Temp
9 8 9 10 11 11 11 11 10 10 11 10 10 9 9 8 7 6 5 5 5 5 5 5 5 5 5 5 5 5 5 5 6 7 8 9 9 9 9 9 9 9 10 9
9 9 11 11 10 11 10 10 9 9 10 10 9 9 8 7 7 5 6 6 5 4 3 5 5 5 4 4 4 5 5 5 5 6 6 7 8 8 8 8 8 8 8 8
10 10 11 11 10 10 9 10 10 10 9 9 8 10 7 9 8 8 6 5 5 4 3 3 4 4 4 4 4 4 4 4 4 5 6 6 7 7 7 7 7 7 7 7
10 10 10 10 10 10 10 10 10 9 8 8 7 6 8 8 8 8 6 5 5 4 3 3 3 4 4 4 4 4 4 4 4 4 4 4 3 4 4 5 6 6 6 6
10 10 10 10 10 10 11 10 9 9 7 7 7 5 8 8 8 7 6 6 5 4 3 3 4 4 4 4 4 4 4 4 4 4 4 3 3 3 4 5 5 5 5 5
9 10 10 10 10 10 10 9 7 5 6 1 7 7 7 7 8 6 5 4 4 4 3 4 5 5 5 5 4 4 4 3 4 4 4 3 3 2 3 4 3 4 4 4
9 9 9 10 10 9 8 6 1 3 1 2 7 7 7 8 6 6 4 3 3 3 2 2 4 4 5 4 4 4 3 3 3 3 3 3 3 3 2 2 1 2 4 3
8 7 9 9 9 9 8 7 2 3 2 4 5 4 8 6 5 4 4 3 3 2 2 2 4 4 4 4 4 4 3 3 3 3 3 2 2 2 2 2 3 2 2 2
7 8 8 8 8 8 8 4 6 -1 -5 -1 4 7 8 5 4 3 2 2 1 1 2 1 4 4 4 4 3 3 2 2 3 3 3 2 2 2 1 1 2 2 2 2
7 7 8 7 8 7 8 6 4 -0 1 -0 3 5 7 5 3 2 1 1 1 1 1 2 3 3 4 3 3 4 3 2 1 3 4 3 2 2 2 2 2 2 2 4
6 7 7 8 7 6 4 3 3 4 2 0 -1 3 4 4 3 2 1 1 0 0 0 1 2 3 4 3 3 3 3 3 1 1 2 1 1 1 2 1 2 2 1 2
7 5 2 6 5 5 6 6 4 1 2 1 0 2 4 2 2 1 1 0 -0 -0 -1 0 1 1 1 1 1 1 2 2 1 2 1 1 1 1 1 1 1 1 2 2
5 2 -2 2 4 5 6 5 2 -3 -3 0 -2 2 2 2 2 0 -0 -1 -2 -1 -1 -1 -1 -1 -1 -1 -1 -1 -1 -1 0 0 1 0 1 1 0 -0 -0 0 1 2
5 -1 1 5 6 3 5 4 3 -1 -4 -3 1 1 4 2 -1 -1 -2 -3 -3 -2 -2 -2 -2 -2 -2 -3 -4 -3 -3 -3 -3 -3 -3 -2 -2 -1 -0 -0 -1 -0 -0 0
2 2 -3 -4 2 3 5 5 2 -1 -3 1 4 -1 -4 -4 -8 -8 -3 -3 -3 -3 -3 -4 -4 -4 -4 -4 -4 -4 -4 -4 -5 -4 -5 -5 -5 -4 -3 -1 -0 -1 -1 -1
-1 -1 -2 -2 -0 -0 0 2 2 1 -3 -2 -1 1 1 -2 -3 -5 -5 -6 -4 -6 -6 -6 -6 -6 -6 -7 -7 -6 -5 -4 -5 -5 -5 -5 -5 -5 -4 -3 -3 -1 -1 -1
-1 -3 -3 -2 -3 -3 0 1 2 -1 -5 -5 -3 -1 -2 -5 -4 -9 -7 -8 -8 -8 -9 -8 -8 -8 -8 -8 -8 -8 -7 -7 -6 -6 -6 -6 -5 -5 -5 -5 -4 -3 -3 -2
-4 -4 -7 -5 -7 -1 4 1 1 1 1 -4 -4 -5 -3 -9 -5 -6 -8 -9 -10 -10 -11 -9 -8 -8 -9 -9 -9 -9 -9 -8 -8 -8 -8 -8 -7 -7 -6 -6 -5 -4 -4 -3
-4 -3 -8 -4 -8 -0 3 1 -0 -0 1 -1 -2 -3 -3 -4 -4 -5 -8 -10 -11 -9 -8 -8 -9 -10 -10 -10 -10 -10 -10 -10 -10 -10 -10 -11 -10 -9 -8 -8 -7 -6 -5 -4
-3 -5 -3 -12 -3 -2 3 1 -1 0 -1 -3 -2 -3 -4 -4 -5 -6 -12 -11 -10 -9 -9 -10 -11 -11 -11 -12 -12 -12 -12 -11 -11 -11 -12 -12 -12 -11 -10 -9 -9 -8 -7 -6
-6 -9 -5 -8 -7 -4 -0 -1 -0 -0 1 -4 -3 -4 -5 -6 -7 -10 -10 -10 -10 -10 -10 -11 -12 -13 -13 -14 -14 -14 -13 -13 -13 -13 -13 -13 -13 -13 -12 -11 -10 -10 -9 -7
-3 -4 -7 -12 -9 -1 -2 -2 0 -2 -4 -4 -5 -6 -6 -6 -7 -9 -11 -11 -11 -11 -12 -13 -14 -15 -15 -15 -16 -15 -15 -15 -15 -16 -16 -15 -14 -14 -14 -13 -12 -12 -11 -10
0 -3 -3 -3 -1 -4 -1 -6 -9 -8 -6 -6 -6 -7 -8 -9 -10 -11 -11 -12 -12 -13 -13 -15 -16 -16 -16 -16 -16 -16 -17 -17 -17 -17 -17 -16 -16 -16 -16 -15 -14 -14 -13 -12
-5 -9 -5 -3 -3 -4 -6 -10 -8 -8 -8 -7 -8 -9 -10 -11 -12 -11 -12 -12 -13 -14 -15 -16 -17 -17 -17 -17 -17 -17 -18 -18 -18 -18 -18 -18 -18 -17 -17 -17 -16 -15 -14 -14
-3 -4 -5 -3 -4 -5 -6 -8 -8 -8 -9 -10 -11 -11 -12 -13 -12 -13 -13 -14 -15 -16 -17 -17 -18 -18 -17 -17 -17 -17 -17 -18 -19 -19 -19 -19 -19 -19 -18 -18 -18 -17 -16 -15
-4 -2 1 1 -2 -3 -2 -5 -7 -8 -10 -11 -12 -14 -13 -13 -14 -15 -15 -16 -17 -17 -17 -17 -17 -18 -17 -17 -16 -16 -17 -18 -18 -19 -19 -19 -19 -19 -19 -19 -19 -18 -16 -15
Height
854 867 873 866 863 863 866 868 874 873 870 872 871 874 869 864 863 865 867 868 865 865 864 861 857 853 848 842 836 833 828 823 817 812 808 803 802 801 798 797 796 796 794 792
861 868 863 862 864 866 869 872 879 877 872 873 877 873 872 869 869 872 870 870 870 869 867 863 859 856 851 847 841 835 831 827 823 818 814 810 807 804 801 799 797 796 795 794
862 864 862 861 869 868 874 874 876 878 878 879 879 872 876 866 869 870 873 873 872 871 870 867 863 860 855 851 847 842 837 831 827 823 818 813 809 806 804 801 799 798 796 796
866 864 862 865 869 869 869 872 872 874 882 889 886 906 876 872 873 873 875 875 873 873 872 870 866 863 860 856 853 849 843 837 832 828 823 820 818 815 812 807 803 800 799 797
867 866 865 867 868 866 868 871 875 875 886 891 893 911 880 875 877 879 878 875 875 875 873 870 868 866 864 860 856 852 847 842 837 833 830 826 822 820 815 811 807 804 802 800
867 866 866 866 868 868 869 874 886 895 896 944 894 895 888 883 881 883 881 880 876 874 872 871 870 869 866 864 861 857 852 846 842 838 834 831 828 824 819 815 812 808 805 803
871 872 869 867 870 870 874 888 939 928 943 937 897 895 885 882 885 886 886 884 879 878 878 875 872 869 868 865 863 860 857 852 847 843 840 836 833 829 826 823 817 812 808 806
877 887 870 870 872 873 880 888 933 941 944 925 903 912 881 887 888 887 887 886 883 879 877 874 871 869 867 866 864 860 859 857 852 848 845 842 839 835 832 827 823 818 813 812
874 873 875 874 874 878 882 906 895 942 977 955 911 887 879 887 889 890 888 885 883 881 876 872 868 868 868 867 866 863 861 861 855 851 848 846 843 839 837 833 829 822 818 816
866 885 879 878 877 881 880 890 912 940 953 961 921 898 881 886 892 892 891 890 886 881 876 870 867 867 867 865 864 860 861 862 860 854 849 847 844 842 839 835 831 826 822 816
865 870 886 877 880 887 902 909 909 912 926 951 956 910 882 889 893 894 894 890 887 883 878 872 867 865 865 865 862 860 859 860 859 856 852 849 845 843 840 838 834 830 827 822
862 877 909 885 887 888 886 886 899 933 931 932 936 907 880 889 892 890 890 887 886 883 878 872 868 868 869 869 866 863 862 861 858 854 853 850 846 843 841 838 835 831 827 823
864 894 935 908 899 889 885 884 901 930 939 929 957 907 883 884 886 890 891 888 886 883 880 875 871 871 872 872 869 867 865 862 859 856 853 851 847 843 841 839 837 833 829 826
860 894 892 882 872 887 885 883 893 917 952 938 907 897 874 883 894 892 893 892 889 889 884 880 877 875 875 874 873 870 867 864 861 860 855 852 849 845 842 838 836 834 831 828
867 885 907 913 889 882 875 876 891 910 918 903 874 903 904 902 907 905 896 894 894 891 887 884 883 881 879 876 874 872 870 867 864 861 859 857 854 848 844 839 835 834 832 829
878 899 900 911 901 899 895 885 886 891 912 909 900 889 884 892 895 899 899 900 899 897 893 888 887 885 883 881 878 875 872 868 865 861 859 856 852 848 845 840 835 832 830 828
878 897 909 919 914 913 893 874 874 890 901 904 909 888 888 900 898 906 902 903 902 900 897 891 889 887 886 884 881 878 874 870 866 862 859 854 851 847 843 840 837 833 829 827
888 897 923 931 936 915 853 863 865 868 871 888 891 892 886 903 895 895 899 903 900 899 896 893 890 888 886 884 882 878 875 871 867 863 859 855 850 846 843 840 837 833 830 827
878 886 934 921 949 883 854 862 867 870 864 869 877 881 883 888 891 895 897 901 898 896 894 891 889 887 885 883 881 877 874 870 867 862 858 855 851 846 842 839 836 833 829 826
879 888 891 957 915 902 847 855 859 859 876 868 870 876 883 889 895 891 896 898 894 892 892 889 888 886 884 881 878 875 871 868 864 860 856 853 849 845 841 838 834 831 828 824
899 917 903 929 926 888 852 855 854 878 858 864 866 872 881 886 885 889 890 890 890 889 889 888 884 883 882 879 876 872 869 866 863 859 854 850 846 843 840 835 832 829 825 821
866 888 909 942 934 877 847 857 855 849 856 859 866 871 876 879 882 886 889 888 886 885 885 884 882 880 879 876 873 870 867 863 860 856 851 847 843 840 837 833 829 827 824 819
845 847 856 858 843 841 832 841 846 848 854 860 863 867 872 877 881 885 886 885 882 883 884 883 880 878 877 875 872 868 864 860 856 852 848 844 840 837 834 832 827 826 823 819
846 852 847 847 835 838 839 844 843 846 850 854 858 863 868 873 879 881 881 880 879 880 880 879 876 876 874 872 869 866 862 858 854 850 846 841 838 834 831 829 827 825 821 819
822 830 840 836 836 838 836 837 837 843 848 854 857 861 863 868 874 875 875 876 875 876 877 875 874 873 871 869 866 863 860 856 852 848 844 840 837 833 829 826 824 821 819 819
811 806 807 801 802 808 809 818 830 837 843 849 854 859 861 866 871 870 872 872 871 871 872 871 871 870 868 865 862 860 857 854 850 845 841 838 834 831 827 822 817 817 814 813
Wind_Speed
5 7 4 3 3 3 5 3 1 2 1 4 2 7 10 9 7 9 6 5 5 6 11 15 20 23 27 30 31 30 27 27 27 25 25 18 17 13 12 8 6 7 12 14
6 4 0 2 4 5 4 2 2 4 2 2 6 8 5 6 4 5 4 6 7 6 7 15 19 23 26 29 30 30 29 26 26 24 21 12 13 10 13 13 11 8 6 10
5 4 3 2 4 4 3 5 1 3 6 3 4 4 6 2 3 4 5 4 4 5 7 10 17 20 24 27 29 29 29 28 26 25 22 19 14 15 19 18 15 12 8 7
4 1 4 4 3 1 2 3 2 2 3 1 4 3 5 5 6 6 6 3 4 6 6 9 15 19 21 22 23 26 28 31 30 28 26 24 19 15 18 19 16 14 10 9
2 2 3 4 2 1 2 1 2 1 3 2 5 4 6 4 6 7 9 6 5 6 5 7 10 12 15 19 21 23 26 30 31 31 30 27 26 23 23 23 21 21 19 13
2 1 2 3 2 2 2 3 5 4 3 3 3 3 5 3 3 6 7 9 5 5 6 8 8 9 13 16 19 22 25 27 29 30 31 30 28 24 26 26 27 25 22 21
3 2 2 2 3 3 5 5 4 6 5 4 0 1 6 2 5 3 6 9 8 8 8 10 11 10 12 14 17 20 23 26 27 28 30 29 28 27 25 23 24 25 27 25
5 4 2 2 2 3 4 3 5 4 1 4 2 4 2 5 4 5 6 6 7 7 7 9 14 11 7 9 12 15 19 22 24 26 27 27 26 25 24 23 23 22 22 19
5 2 1 4 2 3 1 3 2 6 2 3 2 5 3 4 8 8 8 9 10 9 10 10 18 12 8 7 11 15 18 19 20 22 25 24 24 23 23 22 21 23 21 19
5 4 2 1 2 4 2 4 4 4 1 5 4 5 5 2 6 7 10 9 9 9 10 14 18 10 6 1 4 11 17 19 23 25 19 18 19 20 21 22 23 22 21 20
4 4 2 2 2 6 1 1 5 4 4 4 2 5 5 7 3 6 6 7 8 8 9 12 21 9 4 1 6 11 12 18 17 18 17 17 16 17 18 19 20 20 20 20
3 5 3 2 3 1 3 5 5 4 5 3 2 6 7 8 5 4 6 7 8 7 9 16 19 8 11 13 15 15 13 13 17 19 21 19 17 17 17 17 18 18 19 20
7 1 3 6 6 3 4 4 5 5 3 6 4 6 8 6 3 5 6 7 8 9 10 13 16 17 15 16 18 18 18 20 18 19 19 20 19 19 18 15 15 16 15 17
5 3 6 7 5 5 5 6 5 6 4 4 9 8 12 6 7 7 8 8 8 7 7 9 14 16 16 16 18 19 19 19 19 19 18 19 20 19 18 17 15 13 13 14
4 5 3 1 2 0 3 5 9 8 6 7 13 8 6 6 3 3 4 6 6 8 10 9 11 14 16 17 18 19 19 18 17 18 19 21 20 19 19 18 17 15 12 12
2 2 2 3 3 1 4 7 9 7 3 8 5 16 4 4 4 4 6 6 7 6 8 9 13 15 14 18 18 18 18 17 16 17 19 21 23 24 24 23 23 19 15 13
5 6 3 4 3 3 8 10 14 6 4 7 6 9 3 1 2 1 2 3 3 5 6 8 12 13 12 16 17 20 19 16 16 17 19 22 24 25 27 26 24 23 23 18
6 5 3 3 2 0 4 2 3 6 5 8 2 4 5 5 4 5 2 2 3 5 5 10 11 10 12 16 19 20 21 19 20 20 21 23 25 26 27 28 27 25 24 23
2 5 3 4 4 5 4 6 7 7 6 8 8 7 5 3 2 5 4 3 2 5 12 11 9 10 14 19 22 24 23 22 24 25 27 27 26 27 28 28 28 27 26 25
4 6 4 2 5 7 4 4 6 5 5 8 7 8 6 3 2 4 2 5 5 12 13 8 9 14 18 22 25 27 27 26 25 26 30 29 28 27 28 27 28 27 24 25
3 3 5 3 2 8 5 7 5 6 6 7 8 6 7 5 4 3 2 9 10 11 11 12 16 19 20 25 26 22 22 20 22 28 30 28 30 29 27 27 27 27 26 25
8 8 4 3 3 9 9 5 8 5 3 7 6 6 6 4 1 1 3 5 7 8 12 14 17 20 22 20 19 19 19 22 26 25 27 30 30 28 26 25 26 26 24 24
4 7 7 10 7 2 17 4 2 5 6 6 8 5 6 5 4 4 4 4 4 7 9 11 14 16 18 18 15 18 21 23 23 25 27 28 28 26 23 22 22 23 20 18
4 4 3 3 4 6 5 2 4 5 5 7 5 7 8 6 6 7 5 2 3 5 8 12 16 16 18 19 18 19 21 22 23 25 25 23 22 24 21 19 17 18 18 18
3 9 7 4 2 3 4 7 9 8 7 8 10 7 8 6 7 6 4 2 1 4 8 13 15 16 21 21 22 21 20 21 22 24 25 23 19 21 22 19 18 18 19 18
6 7 7 8 11 5 6 16 15 13 12 11 9 6 8 9 8 7 5 4 3 5 10 12 13 16 19 21 21 20 19 18 20 24 23 24 24 22 21 21 23 18 18 20
Wind_Direction
9 63 74 69 54 108 112 102 335 239 224 346 10 292 317 333 15 15 62 60 32 17 359 10 14 16 16 19 18 16 10 8 3 1 1 355 351 3 359 352 329 256 245 242
32 91 256 127 74 91 71 107 351 294 275 20 343 308 313 357 8 9 48 27 13 3 351 3 13 18 20 20 21 22 19 16 15 10 5 354 345 5 17 11 353 346 297 259
113 150 75 95 53 88 61 120 125 218 323 82 330 334 341 337 33 33 46 43 17 356 343 354 9 16 21 20 19 22 27 27 24 23 20 17 17 12 13 11 11 3 349 298
89 2 108 84 85 106 116 184 184 261 55 329 2 267 323 348 356 21 358 358 322 347 353 358 8 11 16 18 22 25 30 34 35 31 33 34 19 13 11 16 16 14 5 343
185 120 100 88 137 307 177 179 316 28 94 71 357 71 266 4 27 340 346 338 332 349 345 346 359 7 13 17 21 27 33 36 36 40 39 37 31 24 34 31 28 28 24 12
100 340 68 135 89 35 322 97 50 49 77 42 258 94 287 19 300 333 341 341 318 307 312 318 336 351 11 17 19 23 28 34 35 37 38 39 37 27 24 22 19 20 24 22
33 346 345 82 86 11 55 49 345 1 15 205 263 39 247 2 22 4 337 334 329 331 326 320 323 340 357 9 18 21 24 28 31 35 35 35 35 34 31 26 19 19 15 11
148 314 166 9 58 147 49 119 147 222 273 273 328 229 207 79 68 48 31 359 360 351 313 298 299 302 330 359 16 28 24 24 28 30 31 30 30 31 31 28 27 23 20 11
141 132 28 60 60 77 238 58 164 100 68 42 253 283 85 82 32 20 7 5 357 339 335 311 297 280 311 6 20 22 19 13 24 24 21 20 20 22 21 22 26 27 22 12
192 103 343 112 99 47 105 150 66 19 12 298 284 278 232 60 11 2 6 347 329 333 333 333 324 290 304 24 46 39 10 358 346 349 351 356 10 15 14 16 20 20 20 19
143 105 240 141 184 169 30 46 56 110 146 187 279 251 192 132 120 4 332 329 323 321 320 324 325 272 246 303 19 6 351 341 342 353 351 352 359 3 9 12 15 18 18 19
174 127 139 205 314 315 236 175 134 126 247 236 155 273 133 146 150 7 344 321 320 324 324 324 336 14 17 8 23 30 21 7 3 359 350 345 344 346 350 359 7 14 18 18
187 324 61 354 357 341 230 169 111 109 86 203 139 258 184 148 34 25 330 335 342 341 345 3 45 46 33 19 18 13 6 1 357 353 350 348 348 348 345 345 353 3 13 16
95 104 158 180 180 151 189 177 150 132 137 195 224 278 281 322 335 346 350 353 349 342 2 11 21 34 34 26 18 10 8 5 2 359 4 2 0 357 347 342 336 346 359 6
115 164 127 307 306 163 191 173 171 192 190 194 266 220 258 273 249 297 338 4 21 20 20 20 16 16 19 19 13 10 9 8 11 11 11 11 8 9 5 1 348 335 340 353
14 123 94 7 3 78 264 226 225 210 185 265 275 281 150 97 87 41 34 20 24 7 5 11 8 11 12 9 7 3 0 360 358 1 2 360 1 4 5 6 5 355 341 330
124 136 102 252 343 333 307 227 204 179 190 158 182 227 149 114 143 240 32 351 328 347 344 350 355 5 6 5 2 1 354 351 350 350 351 352 352 353 355 356 357 360 357 344
129 103 81 180 351 223 252 142 194 171 190 198 156 182 161 177 199 163 173 221 354 350 320 347 355 359 2 354 350 350 350 345 343 343 346 345 344 345 345 346 347 349 349 351
41 119 100 151 199 306 265 197 171 163 256 195 187 170 174 159 176 215 154 209 233 304 334 322 348 354 348 345 341 338 337 338 335 336 338 340 340 338 338 339 339 340 340 338
68 62 116 118 152 211 236 164 132 113 287 172 163 164 167 123 239 256 179 232 307 345 345 3 360 345 335 333 330 327 326 328 328 329 329 331 332 333 331 331 331 331 333 330
95 32 163 164 211 287 210 162 154 97 235 161 163 154 159 183 200 185 7 337 340 347 353 348 342 340 335 329 329 324 325 324 324 319 320 321 324 327 328 325 325 326 327 326
159 151 177 96 89 273 156 71 164 181 82 146 149 164 178 187 146 22 282 293 324 341 342 340 339 334 334 339 336 328 323 320 318 322 320 319 321 324 326 324 322 323 324 325
203 183 177 185 205 246 181 152 149 129 140 172 165 159 162 168 196 216 248 284 329 340 339 342 342 331 332 340 338 326 321 326 322 320 321 322 323 325 325 320 321 319 324 324
244 169 153 112 197 210 196 81 145 161 144 151 140 150 160 172 192 225 229 272 336 344 340 335 338 329 326 337 335 333 331 329 325 326 327 327 322 325 325 319 314 311 314 317
170 140 158 266 201 40 266 205 169 153 135 136 143 162 163 167 212 207 196 225 304 327 325 331 332 325 325 335 337 341 338 333 329 328 328 323 320 319 318 316 311 307 301 299
193 163 176 213 183 164 197 186 165 155 170 165 157 159 164 188 210 192 201 218 258 301 320 324 328 325 329 333 336 342 339 335 331 328 328 324 323 319 315 313 314 314 302 299